[[{"header":{"parameterUnit":"m.s-1","parameterCategory":1,"la1":30.2991,"la2":30.254,"lo1":-89.0895,"lo2":-89.0444,"dy":0.0017,"dx":0.0017,"nx":28,"ny":28,"refTime":"2025-12-15T03:00:00:Z","depth":0,"parameterNumber":2,"parameterNumberName":"U-component_of_WINDS"},"data":[0,0,0,0,0,0,0,0,0,0,0,0,0,0,0,0,0,0,0,0,0,0,0,0,0,0,0,0,0,0,0,0,0,0,0,0,0,0,0,0,0,0,0,0,0,0,0,0,0,0,0,0,0,0,0,0,0,0,-3.2598,-3.2598,0,-3.2643,-3.2644,-3.2644,-3.2543,-3.254,-3.2537,-3.2534,-3.258,-3.2584,-3.2588,0,0,0,0,0,0,0,0,0,0,0,0,0,-3.2422,-3.2425,-3.2598,-3.2598,-3.2599,-3.2643,-3.2644,-3.2644,-3.2544,-3.254,-3.2536,-3.2532,-3.2578,-3.2583,-3.2588,0,0,0,0,0,0,0,0,0,0,0,0,0,-3.2486,-3.2427,-3.2597,-3.2554,-3.2551,-3.2643,-3.2644,-3.2644,-3.2545,-3.254,-3.2535,-3.2531,-3.2577,-3.2583,-3.2589,-3.2726,0,0,-3.2609,-3.2611,0,0,0,0,0,0,0,0,-3.2482,-3.2492,-3.256,-3.2557,-3.2553,-3.2583,-3.2598,-3.2672,-3.2546,-3.2547,-3.2534,-3.2528,-3.2585,-3.259,-3.2609,-3.2728,-3.273,-3.2609,-3.2613,-3.2616,-3.2617,0,0,0,0,0,0,0,-3.2478,-3.249,-3.2615,-3.2561,-3.2557,-3.2531,-3.2535,-3.2612,-3.2592,-3.2547,-3.2539,-3.2546,-3.2582,-3.2603,-3.2609,-3.273,-3.2609,-3.2615,-3.2619,-3.2621,-3.296,-3.2965,0,0,0,0,0,0,-3.2479,-3.2487,-3.2614,-3.2617,-3.2505,-3.2539,-3.2543,-3.2578,-3.2591,-3.2589,-3.255,-3.2541,-3.2595,-3.2602,-3.2611,-3.2769,-3.2616,-3.2622,-3.2625,-3.2955,-3.2961,-3.2967,0,0,0,0,0,0,-3.2476,-3.2492,-3.2612,-3.255,-3.2563,-3.2547,-3.2587,-3.2582,-3.2603,-3.2594,-3.259,-3.2576,-3.2591,-3.2602,-3.2697,-3.2769,-3.2624,-3.263,-3.2949,-3.2957,-3.2964,-3.3088,0,0,0,0,0,0,-3.2471,-3.2491,-3.2543,-3.2552,-3.2567,-3.2699,-3.2592,-3.2586,-3.2614,-3.2603,-3.2617,-3.2615,-3.2588,-3.2688,-3.2704,-3.2775,-3.2635,-3.2942,-3.2952,-3.2962,-3.3078,-3.3099,-3.3118,0,0,0,0,0,-3.2465,-3.2577,-3.2546,-3.2562,-3.2632,-3.2703,-3.2712,-3.2679,-3.2621,-3.2672,-3.2666,-3.2614,-3.2759,-3.2699,-3.2715,-3.279,-3.2938,-3.295,-3.2961,-3.3068,-3.3095,-3.3117,0,0,0,0,0,0,-3.2577,-3.2577,-3.2543,-3.2661,-3.2683,-3.2686,-3.275,-3.2709,-3.2748,-3.2736,-3.2694,-3.2698,-3.2801,-3.2805,-3.2738,-3.2921,-3.2838,-3.2854,-3.2914,-3.294,-3.2959,-3.2955,-3.264,0,0,0,0,0,-3.2615,-3.2674,-3.267,-3.2774,-3.2787,-3.2767,-3.2797,-3.277,-3.2791,-3.28,-3.2801,-3.2823,-3.2873,-3.2907,-3.2953,-3.3078,-3.3078,-3.3138,-3.3158,-3.3174,-3.3188,-3.3252,-3.3277,-3.3005,-3.3005,-3.3005,0,0,-3.2695,-3.2702,-3.2742,-3.2797,-3.2811,-3.2871,-3.2776,-3.2844,-3.2888,-3.281,-3.2899,-3.2901,-3.2923,-3.3033,-3.3082,-3.304,-3.3263,-3.3189,-3.3203,-3.3207,-3.3266,-3.3292,-3.3315,-3.3013,-3.3012,-3.3011,0,0,-3.287,-3.2883,-3.2969,-3.2985,-3.3007,-3.2993,-3.3014,-3.3024,-3.3022,-3.3111,-3.3053,-3.3104,-3.3193,-3.3209,-3.323,-3.3411,-3.3363,-3.3427,-3.3531,-3.3594,-3.3616,-3.3634,-3.3696,-3.3719,-3.3441,-3.3441,-3.3441,0,-3.2966,-3.3055,-3.3019,-3.3091,-3.3116,-3.3049,-3.3135,-3.3152,-3.3188,-3.3207,-3.316,-3.3267,-3.3277,-3.3389,-3.3433,-3.3453,-3.3474,-3.3424,-3.3616,-3.3634,-3.3651,-3.371,-3.3733,-3.3448,-3.3447,-3.3447,-3.3446,0,-3.3171,-3.3233,-3.3301,-3.3337,-3.337,-3.3449,-3.3424,-3.3462,-3.3432,-3.3423,-3.3513,-3.3523,-3.3568,-3.3594,-3.3566,-3.3702,-3.3674,-3.3623,-3.3538,-3.3685,-3.3739,-3.3761,-3.3459,-3.3456,-3.3454,-3.3452,0,0,-3.3417,-3.3431,-3.3457,-3.3471,-3.349,-3.3537,-3.3613,-3.3657,-3.3689,-3.3717,-3.3777,-3.3853,-3.3804,-3.3827,-3.3801,-3.3857,-3.3996,-3.3797,-3.3797,-3.3831,-3.4143,-3.418,-3.4207,-3.3966,-3.397,-3.3973,-3.4141,0,-3.3588,-3.3718,-3.3687,-3.3815,-3.3871,-3.3807,-3.3873,-3.3891,-3.3884,-3.393,-3.3922,-3.3976,-3.3909,-3.3922,-3.3975,-3.3968,-3.4058,-3.3956,-3.402,-3.4023,-3.4014,-3.4236,-3.4276,-3.4433,-3.4162,-3.4165,-3.4168,0,-3.3805,-3.384,-3.3973,-3.3981,-3.4003,-3.4063,-3.41,-3.4146,-3.4164,-3.4155,-3.4181,-3.4143,-3.4216,-3.4132,-3.4231,-3.4163,-3.4187,-3.4188,-3.4193,-3.4196,-3.4102,-3.4242,-3.4483,-3.4506,-3.4202,-3.4199,-3.4197,0,-3.3968,-3.4049,-3.4138,-3.4153,-3.4165,-3.4208,-3.4215,-3.4229,-3.4257,-3.429,-3.4307,-3.4348,-3.437,-3.4403,-3.4376,-3.4318,-3.4479,-3.4393,-3.4471,-3.4472,-3.4506,-3.4504,-3.4752,-3.4527,-3.4527,-3.4526,-3.4526,0,-3.4161,-3.4244,-3.4211,-3.4265,-3.4356,-3.432,-3.4411,-3.4411,-3.4424,-3.4476,-3.4425,-3.4475,-3.4438,-3.4485,-3.4465,-3.4549,-3.456,-3.4553,-3.4547,-3.4557,-3.4557,-3.457,-3.4558,-3.4532,-3.4531,-3.453,-3.4529,0,-3.4357,-3.4339,-3.4431,-3.4435,-3.4438,-3.4505,-3.4507,-3.4557,-3.4547,-3.4614,-3.4628,-3.4611,-3.4663,-3.4641,-3.4697,-3.4683,-3.4789,-3.477,-3.4783,-3.4777,-3.4855,-3.4847,-3.5118,-3.515,-3.4907,-3.491,-3.4912,0,-3.4481,-3.4543,-3.4553,-3.4585,-3.4595,-3.4647,-3.4675,-3.4643,-3.4674,-3.4699,-3.4746,-3.4794,-3.483,-3.4917,-3.4909,-3.4951,-3.493,-3.5022,-3.4935,-3.4943,-3.4928,-3.4923,-3.4928,-3.5038,-3.5041,-3.5043,-3.5045,0,-3.47,-3.4687,-3.473,-3.477,-3.4805,-3.4834,-3.4859,-3.4888,-3.4856,-3.4893,-3.4946,-3.4974,-3.503,-3.5078,-3.5114,-3.512,-3.5077,-3.5073,-3.5093,-3.5102,-3.5106,-3.5102,-3.4827,-3.5066,-3.5064,-3.5063,-3.5061,-3.5061,-3.4862,-3.4913,-3.4928,-3.4977,-3.4992,-3.5016,-3.5063,-3.5058,-3.5101,-3.5144,-3.5122,-3.5183,-3.5199,-3.5243,-3.5255,-3.5302,-3.5265,-3.5295,-3.5302,-3.5309,-3.5318,-3.5101,-3.5309,-3.5308,-3.5308,-3.5307,-3.5307,0,-3.5076,-3.5082,-3.5128,-3.5164,-3.5202,-3.5159,-3.5184,-3.5218,-3.5272,-3.5291,-3.5327,-3.5387,-3.5433,-3.5429,-3.547,-3.5508,-3.5489,-3.552,-3.5515,-3.5517,-3.5349,-3.5327,-3.5534,-3.5534,-3.5534,-3.5534,-3.5534,-3.5534,-3.5192,-3.5276,-3.5265,-3.5355,-3.5361,-3.542,-3.5438,-3.5459,-3.5473,-3.5542,-3.558,-3.5577,-3.5586,-3.5627,-3.5667,-3.5664,-3.568,-3.5718,-3.5708,-3.5551,-3.5529,-3.5507,-3.5485,-3.5723,-3.5723,-3.5871,-3.5872,-3.5873]},{"header":{"parameterUnit":"m.s-1","parameterCategory":1,"la1":30.2991,"la2":30.254,"lo1":-89.0895,"lo2":-89.0444,"dy":0.0017,"dx":0.0017,"nx":28,"ny":28,"refTime":"2025-12-15T03:00:00:Z","depth":0,"parameterNumber":3,"parameterNumberName":"V-component_of_WINDS"},"data":[0,0,0,0,0,0,0,0,0,0,0,0,0,0,0,0,0,0,0,0,0,0,0,0,0,0,0,0,0,0,0,0,0,0,0,0,0,0,0,0,0,0,0,0,0,0,0,0,0,0,0,0,0,0,0,0,0,0,-1.5371,-1.5371,0,-1.5354,-1.5353,-1.5353,-1.5331,-1.5331,-1.533,-1.533,-1.5312,-1.5312,-1.5312,0,0,0,0,0,0,0,0,0,0,0,0,0,-1.5384,-1.5384,-1.5371,-1.5371,-1.5371,-1.5354,-1.5353,-1.5353,-1.5331,-1.5331,-1.533,-1.533,-1.5312,-1.5312,-1.5312,0,0,0,0,0,0,0,0,0,0,0,0,0,-1.5374,-1.5384,-1.5371,-1.5358,-1.5356,-1.5354,-1.5353,-1.5353,-1.5331,-1.5331,-1.533,-1.533,-1.5312,-1.5312,-1.5312,-1.5322,0,0,-1.5311,-1.5311,0,0,0,0,0,0,0,0,-1.5374,-1.5373,-1.536,-1.5358,-1.5357,-1.5344,-1.5351,-1.5343,-1.5331,-1.5341,-1.533,-1.5329,-1.5323,-1.5322,-1.532,-1.5321,-1.532,-1.5311,-1.5311,-1.5311,-1.5311,0,0,0,0,0,0,0,-1.5375,-1.5374,-1.5364,-1.536,-1.5358,-1.5352,-1.535,-1.535,-1.5335,-1.534,-1.5338,-1.5336,-1.5322,-1.532,-1.5319,-1.532,-1.5311,-1.5311,-1.5311,-1.5311,-1.5325,-1.5326,0,0,0,0,0,0,-1.5378,-1.5374,-1.5365,-1.5364,-1.5364,-1.5352,-1.535,-1.5349,-1.5335,-1.5333,-1.5337,-1.5335,-1.5321,-1.532,-1.5319,-1.5328,-1.5311,-1.5311,-1.5311,-1.5325,-1.5325,-1.5326,0,0,0,0,0,0,-1.5378,-1.5377,-1.5365,-1.5369,-1.5367,-1.5352,-1.5351,-1.5349,-1.5346,-1.5333,-1.533,-1.5337,-1.532,-1.5319,-1.5321,-1.5327,-1.5311,-1.5311,-1.5324,-1.5325,-1.5326,-1.5346,0,0,0,0,0,0,-1.5379,-1.5377,-1.5381,-1.5369,-1.5367,-1.5368,-1.5352,-1.5349,-1.5346,-1.5344,-1.5333,-1.533,-1.532,-1.5321,-1.532,-1.5326,-1.5311,-1.5323,-1.5324,-1.5325,-1.5345,-1.5348,-1.535,0,0,0,0,0,-1.5379,-1.5388,-1.5382,-1.5381,-1.5371,-1.5368,-1.5367,-1.5355,-1.5347,-1.535,-1.5341,-1.5331,-1.5326,-1.5321,-1.532,-1.5326,-1.5323,-1.5324,-1.5325,-1.5344,-1.5347,-1.535,0,0,0,0,0,0,-1.5402,-1.5387,-1.5379,-1.5385,-1.5378,-1.5365,-1.5369,-1.5359,-1.5355,-1.5353,-1.5338,-1.5335,-1.5338,-1.5333,-1.5327,-1.5334,-1.5323,-1.5324,-1.5337,-1.534,-1.5343,-1.5344,-1.531,0,0,0,0,0,-1.5408,-1.5407,-1.5394,-1.54,-1.5397,-1.5383,-1.5382,-1.5373,-1.5365,-1.5362,-1.5354,-1.5347,-1.5343,-1.5342,-1.5338,-1.5344,-1.534,-1.5348,-1.535,-1.5352,-1.5353,-1.5354,-1.5356,-1.5329,-1.5329,-1.5329,0,0,-1.542,-1.5411,-1.5412,-1.5404,-1.5398,-1.5397,-1.5381,-1.5381,-1.538,-1.5362,-1.5363,-1.5356,-1.5347,-1.535,-1.5351,-1.5346,-1.536,-1.5354,-1.5355,-1.5355,-1.5355,-1.5358,-1.536,-1.533,-1.533,-1.533,0,0,-1.5441,-1.5435,-1.5439,-1.5432,-1.5423,-1.5414,-1.5414,-1.5402,-1.5397,-1.5397,-1.5383,-1.5381,-1.5377,-1.537,-1.5367,-1.5383,-1.5373,-1.5382,-1.5395,-1.5396,-1.5398,-1.54,-1.5405,-1.5407,-1.5383,-1.5383,-1.5383,0,-1.5457,-1.5455,-1.5442,-1.5442,-1.5438,-1.5422,-1.5424,-1.5419,-1.5409,-1.5407,-1.54,-1.5393,-1.5386,-1.5386,-1.539,-1.5388,-1.5388,-1.5383,-1.5399,-1.5401,-1.5402,-1.5406,-1.5408,-1.5385,-1.5384,-1.5384,-1.5384,0,-1.5475,-1.5473,-1.5477,-1.5467,-1.5464,-1.5466,-1.5452,-1.545,-1.5441,-1.5432,-1.5431,-1.5422,-1.5415,-1.5415,-1.5407,-1.5414,-1.541,-1.5402,-1.5391,-1.5406,-1.541,-1.5411,-1.5386,-1.5386,-1.5385,-1.5385,0,0,-1.5511,-1.5492,-1.5493,-1.5488,-1.5475,-1.5474,-1.5474,-1.5467,-1.5465,-1.5458,-1.5457,-1.5453,-1.5444,-1.544,-1.543,-1.5432,-1.5443,-1.5422,-1.5422,-1.5426,-1.5449,-1.5455,-1.5457,-1.5436,-1.5437,-1.5437,-1.5449,0,-1.5528,-1.5528,-1.5515,-1.5517,-1.5515,-1.5498,-1.5498,-1.549,-1.5482,-1.5478,-1.5468,-1.5465,-1.5455,-1.5452,-1.5452,-1.5442,-1.5448,-1.5441,-1.5434,-1.5434,-1.5436,-1.5459,-1.5466,-1.5478,-1.5451,-1.5451,-1.5451,0,-1.5549,-1.5543,-1.5545,-1.5531,-1.5529,-1.5529,-1.5521,-1.5518,-1.5508,-1.5502,-1.5496,-1.5485,-1.5483,-1.5473,-1.5469,-1.5465,-1.5462,-1.5456,-1.5456,-1.5455,-1.5443,-1.5457,-1.5482,-1.5483,-1.5453,-1.5453,-1.5453,0,-1.5573,-1.5565,-1.5565,-1.5561,-1.5545,-1.5545,-1.5538,-1.5527,-1.5524,-1.5516,-1.5513,-1.5506,-1.5502,-1.5496,-1.5483,-1.5477,-1.5481,-1.547,-1.5475,-1.5475,-1.5476,-1.5476,-1.5499,-1.5475,-1.5475,-1.5475,-1.5475,0,-1.5594,-1.5596,-1.5575,-1.5575,-1.5576,-1.5561,-1.5562,-1.5554,-1.5544,-1.5541,-1.5527,-1.5525,-1.5508,-1.5503,-1.5493,-1.5491,-1.5489,-1.5484,-1.5481,-1.5484,-1.5485,-1.5481,-1.548,-1.5476,-1.5476,-1.5475,-1.5475,0,-1.5621,-1.5608,-1.5606,-1.559,-1.5586,-1.5588,-1.5574,-1.5572,-1.5562,-1.5559,-1.5557,-1.5542,-1.5535,-1.5522,-1.5512,-1.5505,-1.5505,-1.5501,-1.5509,-1.5507,-1.5512,-1.5511,-1.5533,-1.5534,-1.5511,-1.5511,-1.5511,0,-1.5635,-1.5636,-1.5619,-1.5616,-1.561,-1.5605,-1.5601,-1.5585,-1.5581,-1.5569,-1.5569,-1.5561,-1.5554,-1.5545,-1.5533,-1.5525,-1.5519,-1.5528,-1.5518,-1.5521,-1.5518,-1.5518,-1.5517,-1.553,-1.553,-1.553,-1.553,0,-1.566,-1.5653,-1.5647,-1.5638,-1.5633,-1.5626,-1.5617,-1.5616,-1.5598,-1.5594,-1.5587,-1.5582,-1.5571,-1.5564,-1.5553,-1.5546,-1.5535,-1.5533,-1.5534,-1.5537,-1.5541,-1.5538,-1.5513,-1.5533,-1.5533,-1.5532,-1.5532,-1.5532,-1.568,-1.5679,-1.5667,-1.566,-1.5652,-1.5644,-1.5642,-1.5631,-1.5625,-1.5615,-1.5606,-1.56,-1.5588,-1.5573,-1.5566,-1.5561,-1.5555,-1.5556,-1.5556,-1.5557,-1.5558,-1.5543,-1.5559,-1.5559,-1.5559,-1.5559,-1.5559,0,-1.5703,-1.5694,-1.5688,-1.5677,-1.5671,-1.5661,-1.5651,-1.5647,-1.5641,-1.5631,-1.5624,-1.5615,-1.5608,-1.5594,-1.5585,-1.5583,-1.5577,-1.5581,-1.558,-1.5578,-1.5564,-1.5564,-1.5585,-1.5585,-1.5585,-1.5585,-1.5585,-1.5585,-1.5715,-1.5712,-1.5703,-1.5696,-1.5687,-1.568,-1.5675,-1.5667,-1.5659,-1.565,-1.5643,-1.5634,-1.5622,-1.5612,-1.5604,-1.56,-1.5596,-1.5601,-1.5596,-1.5582,-1.558,-1.5577,-1.5577,-1.5601,-1.5601,-1.5611,-1.5611,-1.5611]}]]